Showing default

PESSOA, 100139

Orbit data source: Space-Track

PESSOA, 100139 is a Portuguese payload satellite in SSO that was launched on Mon, 30 Mar 2026 UTC launched from the Air Force Western Test Range (AFWTR). Payload-class satellites include a variety of spacecraft equipped with specific instruments for various scientific and technological missions. These include communications satellites like Starlink; space stations such as the ISS; scientific satellites like the Hubble; Earth observation satellites from companies like Planet Labs, Umbra, and HawkEye 360; GPS; miniature CubeSats for education and research; and military/defense satellites.

Loading next visibility...
Identifier
100139, 2026-067CZ
Orbit
SSO
Country
Flag of PTPT / POR
Related business
Manufacturer
LUSO
Mission
Operational spacecraft
Bus & Motor
CUBESAT 8U, Unknown motor
Mass
~15 kg wet, ~15 kg dry
Launch date (UTC)
2026-03-30 (5 months ago)
Launch vehicle
Unknown
Launch site
Air Force Western Test Range (AFWTR)
Object type
Payload
Rocket body
Debris
Shape & HBR
BOX, 14.5 m
Radar Cross Section
Medium (>0.1 m² and <1 m²)

Expand to show TLE details & history
Last TLE update: 13 hours ago

TLE from 13 hours ago
0 PESSOA
1 A0139U 26067CZ  26254.39632568  .00005426  00000-0  25700-3 0  9999
2 A0139  97.4634 211.8534 0009704 113.8700 246.3553 15.19705691 24763
Epoch: 2026-09-11T09:30Z
TLE epoch observation values (Epoch: 2026-09-11T09:30:42.538Z)
Latitude
-0.00001°
Longitude
78.75588°
Altitude
512.503 km
Speed
7.606 km/s
True Right ascension
14h 07m 24s
True Declination
0° 00' 00"
Sunlit
Object was in daylight at epoch
Visualization orbit readout
Latitude
Unknown
Longitude
Unknown
Altitude
Unknown
Speed
Unknown
Apparent Right ascension
Unknown
Apparent Declination
Unknown
Sunlit
N/A
Visualization observer readout
Local Sidereal Time
14:49:55
Azimuth
Unknown
Elevation
Unknown
Doppler factor
Unknown
Orbital elements
Apogee altitude
510.376 km
Perigee altitude
497.02 km
Semi-major axis
6,881.835 km
Eccentricity
0.00097
Inclination
97.4634°
RAAN
211.8534°
Arg. of periapsis
113.87°
True anomaly
246.25349°
Mean anomaly
246.3553°
Eccentric anomaly
246.30439°
Mean motion
3.80178 °/min
Orbital period
94.69 mins
BSTAR
0.000257
Loading maneuver chart data...
Computing Atmospheric mass density...
Loading historical data...
Loading historical data...
Loading historical data...
Loading historical data...
Loading historical data...
Loading historical data...
Loading historical data...

Documentation

Showing up to 5 results
|